Погода в Раскатихе

Россия / Курганская область     55°02′34″N   65°10′24″E
темп.,
°C
ветер,
м/с
пор.,
м/с
влажн.,
%
обл.,
%
осадки,
мм/ч
давл.,
гПа
погр.,
м
27 ноября, сб
сб2723:00−8ююз61492100 0.0 1025310
02:00−7юз7159370 0.0 1025365
05:00−6юз7159335 0.0 1025353
08:00−6юз7169484 0.0 1025414
11:00−3юз8169022 0.0 1025537
14:00−2юз8148920 0.0 1026509
17:00−4юз715906 0.0 1028346
20:00−5юз714925 0.0 1028286
28 ноября, вс
вс2823:00−7юз5129332 0.0 1029210
02:00−8ююз5109398 0.0 1030158
05:00−9юз499299 0.0 1031141
08:00−9ююз4992100 0.0 1032126
11:00−8ююз510805 0.0 1032206
14:00−7ююз511755 0.0 1031248
17:00−8ююз51280100 0.0 1031212
20:00−7ююз61379100 0.0 1030275
29 ноября, пн
пн2923:00−7ююз61379100 0.0 1029277
02:00−7ююз61375100 0.0 1028270
05:00−7ююз51276100 0.0 1027234
08:00−7ююз51178100 0.0 1026206
11:00−6ююз5117930 0.0 1026222
14:00−5ююз410795 0.0 1025222
17:00−7ююз49865 0.0 1025124
20:00−8ююз47885 0.0 102696
30 ноября, вт
вт3023:00−9ююз368847 0.0 102677
02:00−5ююз3685100 0.0 1025123
05:00−4ююз3686100 0.0 1025137
08:00−4ююз3787100 0.0 1024143
11:00−3ююз4884100 0.0 1025201
14:00−4ю49835 0.0 1023193
17:00−6ю51181100 0.0 1022181
20:00−7ю513777 0.0 1021225
1 декабря, ср
ср123:00−7ю61577100 0.0 1019247
02:00−6ю71675100 0.0 1017302
05:00−6ююз61673100 0.0 1015320
08:00−6ю71575100 0.0 1014284
11:00−4ю71578100 0.0 1013323
14:00−2ююз71777100 0.1 1012394
17:00−2ю61482100 0.4 1012322
20:00−2ю51377100 0.5 1011317